Wind_Speed
45 47 46 41 41 42 43 42 41 40 39 39 40 36 42 41 40 37 36 38 41 43 41 36 33 37 37 34 34 34 36 36 27 24 20 23 24 21 20 18 17 16 25 29
47 44 41 43 42 41 42 41 40 41 41 41 40 37 41 40 40 37 37 38 42 40 39 33 30 33 35 31 31 33 36 32 24 21 21 21 20 19 21 24 24 21 27 32
42 40 42 41 40 40 40 40 40 41 42 40 42 39 38 37 37 36 36 42 44 42 33 29 28 31 34 29 28 36 34 27 20 19 20 17 17 17 19 19 22 20 25 29
37 41 37 38 39 39 39 40 40 39 40 39 39 39 33 33 36 37 39 45 43 38 30 27 27 30 26 25 30 34 29 21 18 18 16 15 13 14 15 20 15 24 27 28
39 33 37 41 42 37 38 38 39 39 38 38 36 37 32 36 37 41 44 47 40 31 28 26 29 31 27 25 35 26 25 17 15 16 14 13 11 12 11 19 17 23 18 24
41 40 41 40 39 37 35 36 36 36 36 37 35 33 29 33 34 35 44 44 39 35 28 27 32 31 28 30 30 25 22 16 14 16 12 12 8 8 7 13 6 20 23 21
43 41 40 37 35 34 34 35 34 34 35 34 32 32 33 30 28 32 31 30 30 32 25 32 34 27 27 31 28 24 21 16 13 14 12 12 8 6 5 6 10 15 21 22
37 37 35 34 34 35 35 34 33 34 33 32 31 35 32 27 25 28 27 27 28 28 28 34 33 28 29 32 26 24 21 17 15 12 9 9 8 5 4 5 6 12 22 23
38 37 37 36 35 35 34 33 32 32 31 31 31 29 27 22 22 21 24 27 27 30 33 31 27 29 33 27 26 24 24 20 15 12 9 8 7 5 4 4 6 6 22 15
35 36 37 36 35 34 32 31 30 30 30 32 32 27 22 21 18 25 27 32 31 34 33 29 29 28 31 27 26 26 25 23 17 13 10 7 8 7 5 5 5 13 14 19
34 34 32 26 31 32 31 30 30 29 28 31 31 24 17 19 20 25 28 33 32 34 37 34 29 29 25 24 26 27 26 25 18 14 12 9 9 10 7 5 4 11 13 17
31 30 27 29 28 27 30 30 30 28 30 31 31 22 18 16 21 24 30 32 34 35 35 34 32 32 24 23 25 27 26 26 19 17 13 9 7 7 7 4 2 5 9 10
27 26 24 25 26 26 28 29 30 29 30 29 30 23 16 17 21 24 25 29 35 34 37 35 36 31 30 23 24 28 30 24 21 18 15 11 8 7 7 6 4 6 7 8
27 24 23 24 24 26 27 25 26 28 28 28 27 21 17 19 24 25 25 32 39 37 35 30 32 33 35 25 25 28 30 24 21 19 16 14 12 9 7 8 8 7 8 11
29 24 26 25 26 27 24 23 27 28 27 33 19 26 17 22 26 31 27 34 39 37 34 32 31 40 33 29 28 26 27 25 22 21 19 17 16 14 12 11 10 11 11 11
31 28 24 20 25 29 24 22 25 28 29 31 27 13 24 24 22 32 27 34 38 36 38 34 31 32 30 27 26 25 24 27 26 23 21 20 20 20 18 17 16 16 16 18
17 21 15 15 13 16 21 20 24 27 28 31 26 20 20 24 21 26 30 30 36 38 36 38 34 33 31 29 27 27 29 29 29 27 26 26 24 23 22 21 20 20 21 23
14 18 17 19 17 19 22 20 20 23 25 28 23 20 23 21 21 25 28 31 32 42 45 43 38 35 34 33 32 29 29 28 29 31 30 25 23 19 19 19 21 23 23 24
11 14 15 19 19 20 22 20 20 20 20 24 21 22 25 21 20 24 26 27 34 37 48 46 43 41 40 40 34 31 30 26 28 31 25 23 23 23 20 20 21 23 24 24
11 12 15 20 23 22 17 17 17 17 17 19 17 20 26 23 23 19 29 29 33 28 39 45 46 48 45 41 39 40 34 30 25 26 22 22 23 23 21 20 21 26 30 33
16 16 17 19 20 18 16 14 13 12 13 16 21 25 23 23 21 20 24 35 27 29 28 47 52 51 44 40 40 39 45 29 28 29 28 27 26 26 28 29 27 28 31 34
16 16 18 19 20 13 10 8 7 9 14 15 18 14 18 19 22 20 19 23 30 32 22 34 55 52 49 45 42 43 41 39 36 34 38 36 32 34 35 35 34 34 35 37
15 18 16 16 10 5 7 9 7 12 5 3 5 5 6 22 27 22 23 25 27 31 26 29 31 37 51 44 54 55 53 47 43 43 44 37 44 39 42 39 38 39 38 38
17 14 10 7 4 6 9 11 12 17 7 4 4 4 9 12 18 28 31 30 30 30 33 31 33 36 37 37 51 65 52 46 48 48 47 43 45 47 42 40 40 40 41 43
12 8 8 6 3 7 10 12 21 20 11 2 8 9 10 11 18 21 29 34 39 39 39 38 35 36 38 41 41 38 38 40 38 36 38 38 42 43 41 41 43 45 48 49
8 5 5 4 6 4 1 9 19 19 12 9 10 12 12 11 11 11 15 20 25 27 29 30 32 32 36 39 42 47 43 40 41 42 42 42 42 43 43 45 47 49 51 52
Wind_Direction
229 233 233 241 244 243 241 243 247 250 253 252 255 251 257 263 263 264 268 272 277 283 288 272 269 266 258 253 259 268 271 275 263 261 270 278 274 268 257 267 272 256 237 218
230 229 238 241 244 244 245 244 248 251 251 254 253 252 257 262 265 270 270 270 274 286 283 268 263 257 252 240 248 263 269 266 255 260 271 280 271 267 261 258 274 249 226 214
238 233 229 233 239 244 249 249 249 250 254 255 256 254 255 261 268 269 268 266 276 286 271 259 253 245 235 235 249 260 263 253 253 261 272 285 268 267 264 264 265 239 222 217
242 228 230 237 240 242 245 250 252 252 255 255 257 255 255 263 270 271 270 272 283 275 262 243 239 232 226 236 248 256 251 244 250 261 275 288 272 268 269 256 237 222 232 227
240 239 239 235 233 242 243 248 254 255 254 254 255 261 255 262 268 267 268 270 275 256 237 233 223 224 227 239 255 246 242 242 245 257 269 282 280 271 281 274 230 218 219 232
229 229 232 237 240 242 244 247 250 254 256 254 257 260 253 268 268 275 271 279 271 228 222 218 219 219 229 253 241 243 235 237 239 250 259 272 277 281 290 284 294 209 223 224
225 228 232 236 239 240 242 249 252 252 252 255 258 259 259 270 270 271 277 265 236 228 223 212 218 226 236 242 238 228 227 230 232 248 253 261 271 269 292 289 302 212 202 205
225 228 232 235 237 239 240 243 247 251 252 255 257 261 267 273 275 271 254 254 231 227 217 217 218 222 236 229 237 226 224 227 230 233 237 250 262 267 283 299 265 208 206 189
225 226 228 230 234 236 238 242 245 250 255 257 255 259 268 272 272 254 247 230 227 225 214 219 221 232 233 224 235 222 221 226 225 219 222 233 249 266 275 280 223 223 187 191
218 223 226 230 233 236 238 242 246 250 254 254 257 263 267 268 251 230 235 224 218 217 211 217 223 236 214 223 229 216 220 226 221 218 221 233 254 255 278 305 250 198 193 209
213 218 221 225 229 234 237 242 246 250 250 251 254 257 270 260 238 227 224 223 214 216 220 224 220 205 214 225 221 213 220 226 222 217 222 233 250 261 266 298 290 194 195 202
215 219 222 228 231 234 239 243 246 245 245 249 253 249 257 244 227 227 224 219 214 218 219 208 216 205 206 228 221 215 221 222 220 220 224 239 253 250 248 250 256 214 221 221
215 216 218 226 232 236 241 243 243 244 245 250 258 269 268 253 231 227 226 217 209 220 192 201 199 197 208 219 224 215 220 217 216 221 223 232 247 250 250 254 246 231 230 230
216 223 222 224 231 238 243 246 252 252 255 253 262 264 264 257 246 230 211 203 208 202 196 204 205 203 209 214 220 218 221 218 220 222 220 227 231 235 235 240 247 253 247 241
216 214 220 221 226 233 241 249 251 254 257 258 255 267 269 265 250 237 202 205 208 208 197 208 215 211 211 217 225 226 231 226 227 229 227 228 235 235 237 233 228 231 239 248
197 193 195 206 221 233 237 246 251 256 256 259 261 259 259 265 259 241 219 202 209 201 196 206 211 204 210 217 226 218 219 222 224 228 231 234 238 236 233 233 234 235 236 240
195 216 234 215 233 251 244 245 249 253 262 263 266 258 261 262 264 248 236 197 201 206 207 208 216 218 219 221 228 225 219 217 222 222 223 230 235 242 248 249 248 247 247 243
237 238 242 236 241 248 260 265 265 256 262 267 271 269 256 271 263 254 231 202 192 205 201 206 214 223 228 228 234 241 233 230 231 229 226 230 238 245 246 249 256 260 266 265
257 253 257 249 247 259 269 265 259 256 262 267 266 267 252 272 244 246 230 205 202 211 209 205 213 223 231 232 234 242 247 236 249 240 223 224 230 234 244 251 254 254 256 257
263 259 269 262 263 259 262 256 254 254 260 259 258 250 257 241 228 228 222 226 200 212 220 212 218 225 229 233 231 237 228 234 228 222 228 234 235 237 247 258 268 263 264 268
283 285 276 268 261 261 256 238 243 253 251 248 253 263 250 217 223 232 223 216 198 213 201 221 216 224 234 230 232 248 236 236 240 243 246 247 249 255 261 264 266 271 270 266
273 274 272 262 259 257 239 223 234 227 243 259 261 246 228 185 196 215 216 225 232 223 228 201 223 220 222 231 237 228 222 236 229 231 247 250 252 255 261 264 268 271 269 264
256 256 249 245 244 264 255 246 230 208 227 261 341 317 253 212 211 210 219 230 233 223 229 225 231 213 214 237 245 238 236 237 240 239 241 248 250 246 260 262 266 266 266 265
235 230 228 224 241 282 258 243 214 205 224 224 314 268 233 215 222 229 229 234 235 229 228 231 233 232 233 232 234 238 232 242 244 239 242 241 248 255 255 258 260 262 262 262
230 223 263 275 213 277 276 233 190 201 207 230 247 222 208 206 219 220 222 227 231 237 240 241 245 248 247 247 248 245 245 243 242 244 247 249 251 251 257 257 258 260 260 260
197 247 178 180 109 83 188 186 199 201 217 242 228 210 220 230 224 222 231 241 243 244 244 248 249 250 252 253 253 247 243 243 249 252 253 250 249 252 256 260 261 261 264 265
Height
5636 5641 5647 5657 5659 5662 5665 5669 5672 5677 5680 5683 5686 5693 5690 5692 5695 5697 5697 5698 5697 5699 5699 5698 5699 5702 5706 5709 5711 5713 5714 5714 5714 5713 5712 5712 5709 5709 5708 5708 5709 5709 5712 5715
5625 5631 5640 5643 5648 5652 5656 5660 5664 5667 5669 5672 5676 5684 5682 5684 5686 5687 5687 5689 5687 5688 5689 5690 5691 5694 5698 5702 5704 5707 5707 5708 5708 5707 5707 5706 5704 5702 5702 5703 5704 5703 5705 5710
5616 5623 5627 5632 5638 5643 5647 5652 5654 5656 5659 5664 5665 5673 5676 5677 5676 5675 5677 5677 5677 5680 5680 5681 5684 5687 5691 5695 5699 5701 5701 5703 5702 5702 5702 5700 5698 5697 5697 5697 5696 5696 5700 5704
5605 5612 5618 5624 5630 5634 5638 5643 5645 5648 5651 5655 5658 5662 5667 5668 5664 5666 5668 5666 5668 5669 5671 5673 5678 5682 5684 5689 5693 5694 5695 5697 5697 5697 5696 5695 5693 5693 5693 5691 5691 5692 5696 5698
5600 5605 5609 5615 5622 5624 5629 5634 5637 5639 5641 5645 5650 5653 5661 5656 5654 5657 5657 5656 5658 5660 5663 5667 5671 5674 5678 5684 5687 5689 5691 5691 5692 5693 5692 5691 5689 5689 5688 5687 5686 5689 5692 5692
5590 5595 5601 5607 5613 5617 5622 5626 5629 5631 5633 5636 5641 5645 5652 5646 5647 5648 5644 5647 5646 5647 5652 5659 5665 5669 5674 5679 5681 5684 5686 5686 5688 5688 5688 5687 5686 5685 5685 5684 5680 5683 5688 5690
5581 5587 5594 5600 5605 5610 5614 5617 5621 5624 5626 5629 5633 5636 5638 5638 5639 5639 5637 5638 5640 5645 5649 5654 5659 5666 5670 5673 5676 5679 5681 5683 5684 5684 5683 5683 5683 5683 5682 5682 5681 5681 5685 5688
5574 5582 5588 5593 5598 5602 5605 5609 5614 5615 5618 5621 5625 5625 5628 5630 5631 5629 5630 5633 5635 5641 5646 5650 5654 5660 5664 5668 5672 5675 5677 5679 5680 5680 5679 5680 5680 5680 5680 5679 5679 5679 5684 5688
5566 5572 5579 5585 5589 5595 5599 5602 5606 5609 5611 5614 5618 5621 5622 5623 5621 5622 5624 5628 5631 5636 5642 5647 5652 5655 5659 5663 5668 5670 5673 5675 5677 5676 5676 5677 5679 5678 5679 5679 5678 5679 5683 5688
5559 5565 5571 5577 5582 5587 5591 5595 5598 5602 5605 5607 5609 5612 5614 5613 5614 5615 5618 5621 5625 5632 5639 5643 5648 5651 5655 5658 5662 5666 5669 5672 5673 5673 5675 5676 5677 5677 5677 5677 5677 5680 5683 5687
5554 5561 5567 5571 5575 5579 5584 5587 5591 5595 5599 5599 5601 5606 5605 5604 5607 5610 5614 5617 5621 5627 5632 5636 5641 5646 5650 5654 5658 5661 5665 5669 5669 5671 5672 5674 5675 5676 5677 5676 5676 5677 5681 5685
5551 5557 5562 5566 5570 5574 5577 5581 5585 5588 5591 5591 5592 5599 5598 5599 5600 5604 5607 5611 5615 5618 5623 5629 5636 5641 5644 5650 5655 5658 5662 5665 5666 5668 5670 5672 5674 5675 5676 5677 5677 5678 5680 5683
5547 5552 5557 5562 5567 5570 5573 5576 5578 5581 5584 5586 5586 5591 5594 5594 5596 5598 5601 5604 5608 5611 5618 5625 5630 5636 5641 5647 5651 5653 5656 5661 5663 5666 5667 5670 5671 5673 5675 5676 5678 5679 5681 5683
5541 5547 5553 5558 5562 5565 5568 5571 5574 5575 5577 5580 5582 5585 5588 5588 5589 5592 5596 5599 5602 5607 5614 5620 5626 5632 5637 5642 5646 5649 5653 5657 5660 5662 5664 5667 5669 5672 5673 5674 5675 5677 5679 5682
5537 5541 5547 5551 5556 5560 5564 5566 5568 5570 5572 5569 5580 5574 5582 5581 5584 5586 5589 5594 5598 5602 5609 5615 5620 5626 5632 5636 5641 5645 5649 5652 5656 5657 5660 5663 5666 5668 5669 5671 5673 5674 5676 5679
5532 5537 5542 5546 5552 5557 5561 5562 5563 5564 5564 5565 5569 5576 5571 5575 5577 5580 5583 5588 5593 5598 5605 5610 5616 5621 5627 5633 5636 5639 5642 5645 5648 5651 5655 5658 5661 5663 5665 5667 5668 5670 5672 5675
5527 5533 5538 5543 5548 5552 5556 5557 5559 5561 5560 5561 5564 5568 5567 5569 5572 5574 5576 5580 5588 5594 5600 5605 5611 5616 5621 5627 5630 5632 5635 5638 5642 5645 5648 5651 5655 5658 5659 5661 5663 5665 5667 5670
5524 5530 5536 5540 5545 5548 5549 5552 5554 5556 5556 5556 5560 5562 5562 5564 5566 5567 5571 5576 5583 5588 5594 5600 5605 5611 5615 5620 5622 5625 5629 5631 5635 5638 5641 5645 5649 5651 5653 5655 5657 5659 5661 5662
5524 5529 5534 5537 5541 5545 5545 5546 5548 5551 5552 5551 5554 5554 5554 5558 5559 5562 5566 5571 5577 5582 5587 5592 5598 5604 5607 5612 5617 5619 5622 5625 5628 5631 5634 5638 5643 5645 5647 5649 5650 5652 5653 5654
5525 5528 5532 5533 5537 5539 5541 5541 5543 5545 5546 5546 5547 5547 5548 5550 5552 5557 5562 5566 5569 5573 5579 5585 5591 5596 5600 5605 5610 5610 5614 5617 5621 5624 5628 5631 5634 5638 5640 5642 5643 5644 5645 5646
5522 5524 5526 5529 5531 5535 5536 5538 5538 5541 5544 5541 5541 5539 5540 5543 5548 5551 5555 5560 5564 5570 5570 5574 5582 5588 5592 5598 5602 5604 5602 5607 5612 5616 5619 5623 5625 5628 5630 5632 5633 5634 5635 5635
5519 5521 5523 5526 5527 5531 5531 5534 5536 5537 5537 5537 5536 5534 5534 5538 5541 5544 5547 5552 5558 5564 5565 5567 5571 5574 5581 5588 5592 5596 5595 5599 5605 5607 5609 5613 5616 5619 5621 5621 5622 5623 5624 5624
5518 5519 5521 5523 5524 5525 5526 5529 5532 5534 5535 5535 5534 5532 5532 5533 5537 5540 5543 5546 5550 5555 5560 5563 5565 5564 5568 5577 5583 5586 5589 5590 5594 5597 5600 5603 5606 5607 5609 5611 5612 5612 5612 5612
5515 5516 5518 5519 5520 5520 5522 5525 5528 5531 5533 5534 5533 5532 5532 5533 5535 5538 5541 5543 5545 5549 5553 5558 5561 5565 5568 5571 5572 5576 5576 5580 5582 5585 5588 5591 5594 5596 5597 5599 5600 5599 5600 5600
5513 5515 5515 5515 5516 5518 5519 5521 5525 5528 5531 5532 5532 5533 5533 5533 5534 5535 5537 5538 5541 5544 5547 5550 5553 5556 5558 5560 5562 5562 5566 5569 5570 5574 5577 5578 5581 5583 5584 5585 5586 5586 5586 5586
5510 5512 5513 5514 5517 5518 5518 5520 5522 5526 5529 5530 5531 5532 5533 5533 5534 5534 5535 5535 5537 5539 5541 5542 5544 5546 5548 5550 5552 5554 5556 5558 5561 5563 5564 5566 5567 5569 5570 5571 5572 5572 5572 5571